, NM

(GMT )
Holloman AFB

Weather History for KHMN - May, 2013

Change the Weather History Date:

Tuesday, May 21, 2013

  Actual Average Record
Temperature  
Mean Temperature 68 °F -  
Max Temperature 83 °F 85 °F 98 °F (2005)
Min Temperature 54 °F 55 °F 50 °F (1999)
Cooling Degree Days 4    
Growing Degree Days 18 (Base 50)    
Moisture  
Dew Point 25 °F    
Average Humidity 20    
Maximum Humidity 37    
Minimum Humidity 10    
Precipitation  
Precipitation 0.00 in - - ()
Sea Level Pressure  
Sea Level Pressure 29.77 in    
Wind  
Wind Speed 10 mph (NNW)    
Max Wind Speed 16 mph    
Max Gust Speed 21 mph    
Visibility 10 miles    
Events      
Averages and records for this station are not official NWS values.
T = Trace of Precipitation, MM = Missing Value Source: NWS Daily Summary

Daily Weather History Graph

Daily Weather History Graph

Search for Another Location

Airport or City:

Trip Planner

Search our weather history database for the weather conditions in past years. The results will help you decide how hot, cold, wet, or windy it might be!

Date:

Astronomy

May. 21, 2013 Rise Set
Actual Time 6:01 AM MDT 8:01 PM MDT
Civil Twilight 5:33 AM MDT 8:28 PM MDT
Nautical Twilight 5:00 AM MDT 9:02 PM MDT
Astronomical Twilight 4:24 AM MDT 9:38 PM MDT
Moon 4:27 PM MDT (5/21) 3:18 AM MDT (5/21)
Length of Visible Light 14h 54m
Length of Day
13h 59m
Waxing Gibbous, 84% of the Moon is Illuminated
May 21
Waxing Gibbous
May 24
Full
May 31
Last Quarter
Jun 8
New
Jun 16
First Quarter

Hourly Weather History & Observations

Time (MDT) Temp. Dew Point Humidity Pressure Visibility Wind Dir Wind Speed Gust Speed Precip Events Conditions
12:58 AM 64.4 °F 21.6 °F 19% 29.75 in 10.0 mi NNW 10.4 mph - N/A   Clear
1:58 AM 62.8 °F 24.8 °F 24% 29.76 in 10.0 mi NNW 16.1 mph - N/A   Clear
2:58 AM 62.6 °F 28.4 °F 27% 29.76 in 10.0 mi NNW 13.8 mph - N/A   Clear
3:58 AM 58.6 °F 28.4 °F 32% 29.79 in 10.0 mi North 11.5 mph - N/A   Clear
4:58 AM 54.9 °F 27.3 °F 35% 29.80 in 10.0 mi NE 8.1 mph - N/A   Clear
5:58 AM 54.7 °F 28.6 °F 37% 29.81 in 10.0 mi North 8.1 mph - N/A   Clear
6:58 AM 57.9 °F 28.4 °F 32% 29.84 in 10.0 mi North 4.6 mph - N/A   Clear
7:58 AM 64.0 °F 30.7 °F 29% 29.84 in 10.0 mi NNW 5.8 mph - N/A   Clear
8:58 AM 66.6 °F 30.9 °F 26% 29.85 in 10.0 mi Variable 6.9 mph - N/A   Clear
9:58 AM 71.2 °F 30.9 °F 23% 29.84 in 10.0 mi North 10.4 mph 20.7 mph N/A   Clear
10:58 AM 74.1 °F 30.2 °F 20% 29.83 in 10.0 mi North 13.8 mph - N/A   Clear
11:58 AM 76.1 °F 29.3 °F 18% 29.83 in 10.0 mi NW 9.2 mph 18.4 mph N/A   Clear
12:58 PM 77.2 °F 28.6 °F 17% 29.81 in 10.0 mi WNW 9.2 mph - N/A   Scattered Clouds
1:58 PM 80.6 °F 24.8 °F 13% 29.80 in 10.0 mi WNW 8.1 mph - N/A   Partly Cloudy
2:58 PM 81.3 °F 22.5 °F 11% 29.77 in 10.0 mi WNW 9.2 mph - N/A   Clear
3:58 PM 82.9 °F 21.0 °F 10% 29.74 in 10.0 mi Variable 2.3 mph - N/A   Clear
4:58 PM 83.3 °F 21.9 °F 10% 29.72 in 10.0 mi WNW 8.1 mph - N/A   Clear
5:58 PM 83.7 °F 22.1 °F 10% 29.70 in 10.0 mi NW 8.1 mph - N/A   Clear
6:58 PM 82.8 °F 21.4 °F 10% 29.69 in 10.0 mi South 4.6 mph - N/A   Clear
7:58 PM 79.9 °F 21.4 °F 11% 29.70 in 10.0 mi SSE 5.8 mph - N/A   Clear
8:58 PM 75.2 °F 21.6 °F 13% 29.70 in 10.0 mi SSE 6.9 mph - N/A   Clear
9:58 PM 69.1 °F 20.3 °F 16% 29.72 in 10.0 mi SSE 8.1 mph - N/A   Clear
10:58 PM 68.4 °F 19.4 °F 16% 29.72 in 10.0 mi SSE 9.2 mph - N/A   Clear
11:58 PM 65.5 °F 17.1 °F 16% 29.72 in 10.0 mi SSE 8.1 mph - N/A   Clear